This is the latest recevied weather packets stored in our database for station/object W0WC. If no packets are shown the sender has not sent any weather packets the latest 10 day(s).
| Time | Temp. | Humidity | Pressure | Rain* | Wind** | Luminosity | Snow |
|---|---|---|---|---|---|---|---|
| 1777831565 | 25° C | 38% | 1015.7 hPa | 0 mm | - | 800 W/m² | - |
| 1777831263 | 25.56° C | 37% | 1015.9 hPa | 0 mm | - | 800 W/m² | - |
| 1777830959 | 24.44° C | 40% | 1015.9 hPa | 0 mm | - | 800 W/m² | - |
| 1777830656 | 25° C | 39% | 1016 hPa | 0 mm | - | 796 W/m² | - |
| 1777830353 | 24.44° C | 40% | 1015.9 hPa | 0 mm | - | 790 W/m² | - |
| 1777830050 | 24.44° C | 38% | 1016.1 hPa | 0 mm | - | 789 W/m² | - |
| 1777829745 | 24.44° C | 39% | 1016.1 hPa | 0 mm | - | 789 W/m² | - |
| 1777829441 | 23.33° C | 39% | 1016.2 hPa | 0 mm | - | 789 W/m² | - |
| 1777829139 | 23.89° C | 39% | 1016.3 hPa | 0 mm | - | 788 W/m² | - |
| 1777828836 | 23.33° C | 42% | 1016.5 hPa | 0 mm | - | 779 W/m² | - |
| 1777828532 | 23.33° C | 42% | 1016.4 hPa | 0 mm | - | 773 W/m² | - |
| 1777828230 | 23.33° C | 40% | 1016.6 hPa | 0 mm | - | 769 W/m² | - |
| 1777827926 | 23.33° C | 41% | 1016.7 hPa | 0 mm | - | 763 W/m² | - |
| 1777827623 | 22.78° C | 41% | 1016.7 hPa | 0 mm | - | 756 W/m² | - |
| 1777827321 | 22.78° C | 42% | 1016.7 hPa | 0 mm | - | 749 W/m² | - |
| 1777827017 | 22.78° C | 42% | 1016.8 hPa | 0 mm | - | 741 W/m² | - |
| 1777826714 | 22.78° C | 42% | 1016.8 hPa | 0 mm | - | 733 W/m² | - |
| 1777826410 | 22.22° C | 44% | 1016.9 hPa | 0 mm | - | 727 W/m² | - |
| 1777826108 | 22.22° C | 42% | 1016.9 hPa | 0 mm | - | 719 W/m² | - |
| 1777825804 | 21.67° C | 44% | 1016.7 hPa | 0 mm | - | 710 W/m² | - |
| 1777825503 | 21.67° C | 43% | 1017 hPa | 0 mm | - | 701 W/m² | - |
| 1777825200 | 21.67° C | 44% | 1017 hPa | 0 mm | - | 693 W/m² | - |
| 1777824896 | 21.67° C | 43% | 1016.9 hPa | 0 mm | - | 684 W/m² | - |
| 1777824592 | 21.11° C | 44% | 1016.9 hPa | 0 mm | - | 674 W/m² | - |
| 1777824289 | 21.67° C | 43% | 1016.8 hPa | 0 mm | - | 664 W/m² | - |
* Rain latest hour (hover to see other rain measurements)
** Current wind speed in m/s (hover to see current wind gust speed)